Home   Weather   Lloydminster   Past weeks

Flag for Canada Past Weather in Lloydminster, Alberta, Canada — Yesterday and Last 2 Weeks

Now
-17 °F

Clear.


Feels Like: -27 °F
Forecast: -18 / -7 °F
Wind: 3 mph from Southeast

Location: Lloydminister

Current Time: Dec 10, 2016 at 3:54:34 am

Latest Report: Dec 10, 2016 at 3:00 am


Visibility: 9 mi

Pressure: 30.45 "Hg (27.83 "Hg at 648m altitude)

Humidity: 76%

Dew Point: -22 °F

Location of LloydminsterLocation

Past Weather in Lloydminster — Graph

°F

Lloydminster Temperature Yesterday

Maximum temperature yesterday: -9 °F (at 12:00 pm)
Minimum temperature yesterday: -18 °F (at 6:00 am)
Average temperature yesterday: -14 °F

High & Low Weather Summary for the Past Weeks

 TemperatureHumidityPressure
High37 °F (Nov 25, 3:00 pm)100% (Nov 25, 2:00 am)30.92 "Hg (Nov 25, 2:00 am)
Low-18 °F (Dec 9, 6:00 am)59% (Dec 4, 12:00 pm)29.44 "Hg (Nov 27, 3:00 pm)
Average13 °F86%30.11 "Hg
* Reported Nov 25 2:00 am — Dec 10 2:00 am, Lloydminster, Weather by CustomWeather, © 2016

Note: Actual official high and low records may vary slightly from our data, if they occured in-between our weather recording intervals... More about our weather records

Advertising

Lloydminster Weather History for the Previous 24 Hours

Scroll right to see more
 ConditionsComfort  
Time TempWeatherWind HumidityBarometerVisibility
2:00 am
Sat, Dec 10
-17 °FClear.3 mph76%30.46 "Hg9 mi
1:00 am-17 °FClear.3 mph76%30.49 "Hg9 mi
12:00 am-17 °FClear.6 mph76%30.51 "Hg9 mi
11:00 pm
Fri, Dec 9
-15 °FClear.6 mph76%30.52 "Hg9 mi
10:00 pm-17 °FClear.6 mph76%30.55 "Hg15 mi
9:00 pm-15 °FClear.2 mph76%30.58 "Hg15 mi
8:00 pm-15 °FSnow flurries. Clear.6 mph76%30.61 "Hg15 mi
7:00 pm-15 °FSnow flurries. Clear.5 mph76%30.63 "Hg15 mi
6:00 pm-15 °FSnow flurries. Clear.3 mph83%30.65 "Hg15 mi
5:00 pm-15 °FSnow flurries. Clear.6 mph76%30.66 "Hg15 mi
4:00 pm-11 °FSnow flurries. Passing clouds.3 mph76%30.68 "Hg10 mi
3:00 pm-9 °FSnow flurries. Passing clouds.2 mph84%30.69 "Hg12 mi
2:00 pm-9 °FSnow flurries. Passing clouds.3 mph84%30.71 "Hg10 mi
1:00 pm-9 °FSnow flurries. Passing clouds.5 mph84%30.73 "Hg10 mi
12:00 pm-9 °FSnow flurries. Passing clouds.5 mph77%30.75 "Hg10 mi
11:00 am-11 °FSnow flurries. Passing clouds.3 mph84%30.77 "Hg12 mi
10:00 am-13 °FSnow flurries. Passing clouds.No wind83%30.78 "Hg15 mi
9:00 am-17 °FSnow flurries. Passing clouds.2 mph76%30.78 "Hg15 mi
8:00 am-17 °FSnow flurries. Passing clouds.No wind76%30.79 "Hg15 mi
7:00 am-17 °FSnow flurries. Passing clouds.No wind83%30.79 "Hg15 mi
6:00 am-18 °FClear.5 mph83%30.80 "Hg9 mi
5:00 am-17 °FPassing clouds.2 mph76%30.80 "Hg9 mi
4:00 am-15 °FOvercast.No wind76%30.80 "Hg9 mi
3:00 am-17 °FOvercast.2 mph83%30.81 "Hg9 mi
Weather by CustomWeather, © 2016

See weather overviewHow to use our weather pages